SCP
0 0 0 0 -0 -0 -0 0 0 0 -0 -0 0 0 0 0 0 0 0 0 0 0 0 0 0 0 0 0 0 0 0 0 0 0 0 0 0 0 0 0 0 0 0
0 0 0 0 -0 -0 -0 -0 0 0 -0 0 0 0 0 0 0 0 0 0 0 0 0 0 0 0 0 0 0 0 0 0 0 0 0 0 0 0 0 0 0 0 0
0 0 0 0 0 -0 -0 -0 0 0 0 0 0 0 0 0 0 0 0 0 0 0 0 0 0 0 0 0 0 0 0 0 0 0 0 0 0 0 0 0 0 0 0
0 0 0 0 0 0 0 0 0 0 0 0 0 0 0 0 0 0 0 0 0 0 0 0 0 0 0 0 0 0 0 0 0 0 0 0 0 0 0 0 0 0 0
0 0 0 0 0 0 0 0 0 0 0 0 0 0 0 0 0 0 0 0 0 0 0 0 0 0 0 0 0 0 0 0 0 0 0 0 0 0 0 0 0 0 0
0 0 0 0 0 0 0 0 0 0 0 0 0 0 0 0 0 0 0 0 0 0 0 0 0 0 0 0 0 0 0 0 0 0 0 0 0 0 0 0 0 0 0
0 0 0 0 0 0 0 0 0 0 0 0 0 0 0 0 0 0 0 0 0 0 0 0 0 0 0 0 0 0 0 0 0 0 0 0 0 0 0 0 0 0 0
0 0 0 0 0 0 0 0 0 0 0 0 0 0 0 0 0 0 0 0 0 0 0 0 0 0 0 0 0 0 0 0 0 0 0 0 0 0 0 0 0 0 0
0 0 0 0 0 0 0 0 0 0 0 0 0 0 0 0 0 0 0 0 0 0 0 0 0 0 0 0 0 0 0 0 0 0 0 0 0 0 0 0 0 0 0
0 0 0 0 0 0 0 0 0 0 0 0 0 0 0 0 0 0 0 0 0 0 0 0 0 0 0 0 0 0 0 0 0 0 0 0 0 0 0 0 0 0 0
0 0 0 0 0 0 0 0 0 0 0 0 0 0 0 0 0 0 0 0 0 0 0 0 0 0 0 0 0 0 0 0 0 0 0 0 0 0 0 0 0 0 0
0 0 0 0 0 0 0 0 0 0 0 0 0 0 0 0 0 0 0 0 0 0 0 0 0 0 0 0 0 0 0 0 0 0 0 0 0 0 0 0 0 0 0
0 0 0 0 0 0 0 0 0 0 0 0 0 0 0 0 0 0 0 0 0 0 0 0 0 0 0 0 0 0 0 0 0 0 0 0 0 0 0 0 0 0 0
0 0 0 0 0 0 0 0 0 0 0 0 0 0 0 0 0 0 0 0 0 0 0 0 0 0 0 0 0 0 0 0 0 0 0 0 0 0 0 0 0 0 0
0 0 0 0 0 0 0 0 0 0 0 0 0 0 0 0 0 0 0 0 0 0 0 0 0 0 0 0 0 0 0 0 0 0 0 0 0 0 0 0 0 0 0
0 0 0 0 0 0 0 0 0 0 0 0 0 0 0 0 0 0 0 0 0 0 0 0 0 0 0 0 0 0 0 0 0 0 0 0 0 0 0 0 0 0 0
0 0 0 0 0 0 0 0 0 0 0 0 0 0 0 0 0 0 0 0 0 0 0 0 0 0 0 0 0 0 0 0 0 0 0 0 0 0 0 0 0 0 0
0 0 0 0 0 0 0 0 0 0 0 0 0 0 0 0 0 0 0 0 0 0 0 0 0 0 0 0 0 0 0 0 0 0 0 0 0 0 0 0 0 0 0
0 0 0 0 0 0 0 0 0 0 0 0 0 0 0 0 0 0 0 0 0 0 0 0 0 0 0 0 0 0 0 0 0 0 0 0 0 0 0 0 0 0 0
0 0 0 0 0 0 0 0 0 0 0 0 0 0 0 0 0 0 0 0 0 0 0 0 0 0 0 0 0 0 0 0 0 0 0 0 0 0 0 0 0 0 0
0 0 0 0 0 0 0 0 0 0 0 0 0 0 0 0 0 0 0 0 0 0 0 0 0 0 0 0 0 0 0 0 0 0 0 0 0 0 0 0 0 0 0
0 0 0 0 0 0 0 0 0 0 0 0 0 0 0 0 0 0 0 0 0 0 0 0 0 0 0 0 0 0 0 0 0 0 0 0 0 0 0 0 0 0 0
0 0 0 0 0 0 0 0 0 0 0 0 0 0 0 0 0 0 0 0 0 0 0 0 0 0 0 0 0 0 0 0 0 0 0 0 0 0 0 0 0 0 0
0 0 0 0 0 0 0 0 0 0 0 0 0 0 0 0 0 0 0 0 0 0 0 0 0 0 0 0 0 0 0 0 0 0 0 0 0 0 0 0 0 0 0
0 0 0 0 0 0 0 0 0 0 0 0 0 0 0 0 0 0 0 0 0 0 0 0 0 0 0 0 0 0 0 0 0 0 0 0 0 0 0 0 0 0 0
0 0 0 0 0 0 0 0 0 0 0 0 0 0 0 0 0 0 0 0 0 0 0 0 0 0 0 0 0 0 0 0 0 0 0 0 0 0 0 0 0 0 0
Wind_Speed
5 5 4 4 4 3 3 3 3 4 5 5 4 4 5 5 5 4 3 7 6 6 6 6 5 5 4 3 4 4 5 5 6 6 6 6 6 6 5 5 5 5 4
6 6 5 5 5 5 4 4 4 4 3 3 3 5 6 6 5 5 3 4 6 5 5 6 6 6 5 5 5 5 6 6 6 6 6 6 5 5 5 5 5 5 4
8 7 7 6 6 5 5 3 3 3 3 3 4 4 5 5 6 5 4 3 3 5 5 6 6 6 6 6 6 6 6 6 6 6 6 6 6 6 6 6 6 6 5
8 7 7 7 6 5 4 3 3 3 2 2 2 2 3 4 5 5 4 4 3 2 4 6 6 6 6 5 5 5 6 6 6 6 6 5 5 5 5 5 5 5 5
8 7 6 6 6 4 4 4 2 3 2 2 2 1 1 2 3 5 5 5 5 4 3 5 6 6 6 6 6 5 6 6 6 5 5 5 4 4 4 3 4 4 5
8 7 5 6 6 5 4 3 3 2 2 2 1 1 1 1 2 3 5 5 5 5 5 4 4 4 7 6 6 6 6 6 6 6 5 5 4 4 4 4 4 5 5
7 7 5 6 6 5 5 5 3 3 2 2 2 2 2 2 2 2 3 4 5 6 5 5 3 3 3 7 6 7 7 7 7 6 6 5 5 5 5 4 4 5 5
6 7 7 6 6 5 5 4 4 3 2 2 3 2 1 4 3 1 2 4 5 5 6 7 5 5 3 3 4 7 6 7 7 6 6 5 5 5 5 4 4 4 4
6 5 6 5 5 5 5 4 4 5 3 2 2 4 3 3 2 3 1 2 3 4 5 5 6 6 5 4 4 6 7 7 7 7 6 5 5 4 4 4 3 2 2
6 6 6 6 5 4 4 4 4 3 4 3 1 2 2 3 2 2 3 2 2 4 5 5 6 7 6 5 6 8 9 8 8 8 7 6 5 5 4 4 3 3 3
4 5 5 5 4 3 4 4 4 3 3 3 3 2 2 1 2 2 2 3 2 2 3 4 4 5 7 6 6 8 11 10 8 8 8 7 6 5 5 4 4 3 3
3 4 4 4 4 4 4 4 4 4 3 3 3 3 3 3 3 3 4 3 2 3 2 2 3 4 6 7 9 13 13 11 10 8 8 8 8 7 6 6 5 4 4
3 4 4 3 3 3 3 3 4 3 4 4 4 3 3 3 3 3 3 2 2 2 2 2 2 3 5 5 7 13 13 13 12 10 9 8 8 8 8 7 7 7 6
3 4 4 3 3 3 3 3 3 3 3 3 4 4 3 3 3 3 4 3 2 2 2 3 2 3 3 5 7 12 9 14 13 12 11 10 9 8 8 8 9 8 8
3 4 4 4 3 3 3 3 2 3 3 3 3 4 3 3 3 3 3 4 4 3 3 3 2 2 2 3 6 6 6 12 13 13 12 12 11 10 10 9 8 7 6
3 3 2 2 2 1 1 2 2 3 4 3 3 4 3 2 3 3 3 3 3 4 3 3 3 2 1 2 5 5 6 11 13 13 12 12 12 12 12 11 10 9 8
3 2 1 1 1 0 1 2 3 4 4 4 3 4 4 3 3 2 2 2 3 3 3 3 2 2 1 2 2 2 4 4 5 12 13 13 13 13 13 13 12 11 10
4 3 2 2 1 1 1 0 2 3 4 4 4 4 4 3 3 2 2 3 2 3 3 3 2 1 2 2 2 2 2 4 4 8 12 14 14 14 13 13 12 12 11
4 4 3 4 4 3 3 2 2 2 3 3 3 3 4 4 3 2 2 2 2 2 2 2 1 1 1 1 0 1 1 1 3 4 7 10 12 13 13 13 12 12 11
5 5 5 5 5 5 4 4 2 1 1 1 2 3 4 5 5 4 3 2 2 2 1 1 0 1 1 1 0 1 2 1 2 2 2 3 6 10 11 12 11 11 12
7 6 6 6 5 4 5 4 4 3 2 0 1 2 3 5 7 5 4 3 3 2 1 1 1 1 1 1 1 1 1 2 2 1 1 1 1 2 3 7 10 11 11
7 7 7 6 7 6 8 7 4 2 1 1 2 2 2 3 5 5 6 6 5 3 2 2 1 0 1 1 1 1 1 1 2 2 1 1 0 1 1 2 4 6 8
6 6 6 5 5 7 11 10 7 2 2 1 2 2 2 2 3 2 3 3 3 3 4 3 2 1 1 1 0 1 1 0 1 2 2 2 2 1 1 1 0 1 3
4 4 5 5 5 9 14 12 9 4 3 2 2 3 3 3 2 3 3 2 1 0 1 2 2 2 1 1 1 1 0 1 1 2 2 2 2 2 2 2 4 4 4
5 4 4 6 6 8 14 13 9 3 3 4 3 3 3 3 3 5 5 4 3 2 2 3 3 2 2 2 2 2 2 2 2 2 2 2 2 2 2 2 3 5 5
5 5 6 6 6 6 13 14 10 3 4 3 4 4 5 4 3 6 5 5 5 2 2 3 3 3 3 4 4 2 2 2 1 2 2 2 2 2 3 2 3 3 3
Wind_Direction
191 188 200 204 211 213 213 217 226 239 246 247 230 192 171 169 166 173 185 180 176 181 180 175 174 177 181 186 182 177 173 171 167 163 161 161 161 162 166 171 173 169 161
189 191 200 207 214 217 215 211 217 218 215 193 165 147 153 162 170 175 180 185 184 185 193 192 188 188 193 198 198 195 190 187 185 183 182 182 182 185 192 197 197 187 177
193 194 199 205 212 217 218 205 209 183 176 163 135 135 144 158 171 177 177 178 184 193 198 198 193 190 195 199 202 203 197 195 196 198 199 200 203 207 211 216 215 203 195
195 190 193 200 200 199 191 178 163 144 156 135 134 152 146 155 174 179 177 180 184 193 201 192 182 186 191 192 196 197 195 193 196 201 205 206 210 213 216 220 221 215 215
196 184 187 190 182 176 172 171 149 145 143 145 165 172 178 176 180 180 183 189 191 189 193 196 186 183 184 188 191 193 193 195 198 201 204 206 209 212 215 219 225 230 235
193 180 180 178 166 159 159 152 142 135 142 153 134 101 273 240 202 185 193 192 193 193 194 197 190 194 189 187 192 196 195 197 198 202 208 212 216 223 229 236 244 246 247
181 176 174 167 161 161 165 154 138 135 133 126 91 32 346 324 261 218 191 182 192 196 189 196 196 200 199 198 198 202 201 199 201 206 212 221 228 235 239 244 251 253 250
176 177 167 164 161 152 154 156 143 138 144 138 130 111 350 331 318 300 189 186 195 193 195 201 198 201 201 190 206 201 200 201 203 207 213 221 227 234 236 240 245 247 241
171 168 163 156 159 158 166 168 159 154 163 174 152 147 161 221 294 320 304 209 195 195 200 196 200 201 200 194 199 208 200 196 201 204 209 214 221 228 225 223 220 207 200
166 160 158 159 166 164 163 173 171 166 156 169 179 183 167 157 166 301 320 319 231 208 205 206 204 200 197 192 199 201 199 196 200 205 206 209 214 215 213 212 208 204 188
159 157 154 156 162 164 164 170 163 169 170 168 171 173 165 161 164 172 265 309 328 271 227 217 200 196 197 193 194 202 202 199 201 204 206 206 207 206 208 206 199 193 191
152 150 144 149 157 158 165 168 166 169 176 177 178 176 167 162 181 181 210 240 271 288 271 234 209 198 194 193 199 199 201 201 203 204 205 210 212 214 214 211 209 209 213
149 152 142 148 152 152 156 156 159 172 177 185 187 186 181 185 171 168 175 206 238 284 302 275 230 207 198 191 200 198 203 203 205 204 204 206 212 220 223 223 226 225 226
125 129 128 134 138 150 152 158 160 180 187 192 195 184 177 194 179 172 169 166 197 286 296 275 284 224 208 193 204 199 205 207 208 207 206 207 209 216 223 230 235 235 235
100 101 113 120 135 154 158 157 161 196 193 191 192 187 184 193 182 179 169 165 167 201 259 269 269 264 226 203 204 197 203 212 212 213 212 213 214 217 222 227 233 236 236
81 83 86 106 121 129 136 153 182 201 184 185 187 179 186 192 186 175 173 176 173 175 220 257 254 265 248 211 201 197 211 218 219 219 221 221 220 220 222 223 225 225 225
69 75 72 75 89 166 203 195 208 194 182 191 193 187 196 185 176 180 169 171 178 172 210 260 263 264 243 234 195 200 214 219 224 227 228 229 228 227 226 225 225 225 226
46 38 34 38 21 2 358 224 240 218 202 195 196 187 197 183 179 179 170 182 185 185 191 236 274 275 254 241 215 222 222 219 220 231 232 233 233 231 230 229 228 228 228
39 35 35 36 37 34 16 329 271 252 233 213 194 184 185 166 175 171 171 174 178 172 175 196 264 289 282 291 291 281 264 259 247 246 240 240 238 235 231 230 230 231 232
47 47 44 43 46 43 28 5 356 323 302 270 209 186 176 171 172 165 158 157 144 128 134 151 261 313 306 316 45 278 292 276 270 276 268 250 241 238 236 234 234 235 237
55 56 58 50 43 44 31 22 16 24 15 44 104 150 180 181 171 163 153 153 135 120 107 95 58 14 349 347 297 268 266 292 291 280 276 263 238 235 235 239 240 241 241
54 57 59 56 47 36 26 27 29 38 28 91 109 124 158 171 170 157 150 152 148 141 140 131 122 107 306 299 306 308 300 355 323 337 328 313 307 267 256 233 247 250 254
52 56 52 49 42 25 27 25 30 49 56 95 134 130 133 134 129 130 147 149 154 154 152 151 154 193 211 263 271 20 13 17 322 332 350 351 359 351 353 30 357 281 283
47 49 44 38 31 24 27 26 29 40 56 62 95 133 138 132 144 160 151 142 139 28 180 153 160 181 180 172 147 149 134 60 13 353 11 29 359 359 359 8 15 25 17
40 41 38 34 29 14 23 29 38 32 51 52 56 81 111 122 145 152 141 133 109 61 77 133 146 140 119 103 99 72 50 60 35 353 4 47 0 350 355 2 8 19 21
41 46 43 34 28 16 19 27 35 40 55 53 44 46 62 80 107 137 140 139 139 141 111 92 74 59 51 44 53 69 94 86 74 13 350 39 11 13 14 354 2 6 11